Regional Weather Roundup
Issued by NWS

Home | Current Version | Previous Version | Text Only | Print | Product List | Glossary Off
Versions: 1 2 3 4 5 6 7 8 9 10 11 12 13 14 15 16 17 18 19 20 21 22 23 24 25 26 27 28 29 30 31 32 33 34 35 36 37 38 39 40 41 42 43 44 45 46 47 48 49 50

000
ASUS45 KPSR 241710
RWRAZ

ARIZONA REGIONAL HOURLY WEATHER ROUNDUP
NATIONAL WEATHER SERVICE PHOENIX AZ
1000 AM MST THU JUL 24 2014

NOTE: FAIR INDICATES FEW OR NO CLOUDS BELOW 12,000 FEET WITH NO
SIGNIFICANT WEATHER AND/OR OBSTRUCTIONS TO VISIBILITY.

AZZ001>003-036-241800-
NORTHWEST ARIZONA

CITY           SKY/WX    TMP DP  RH WIND       PRES   REMARKS
BULLHEAD CITY  SUNNY    102  55  21 SW8       29.82F HX 101
KINGMAN        MOSUNNY   96  47  18 S7        30.05S
$$

AZZ004>008-015-016-018-241800-
NORTH CENTRAL ARIZONA

CITY           SKY/WX    TMP DP  RH WIND       PRES   REMARKS
GRAND CANYON   PTSUNNY   79  51  37 S10G20    30.36S
WILLIAMS       CLOUDY    73  50  43 SE13      30.42S
PRESCOTT       MOSUNNY   88  52  29 SE10G17   30.22S
FLAGSTAFF      CLOUDY    73  50  44 SW7       30.40S
PAYSON         MOSUNNY   86  50  28 VRB6      30.26S
PAGE           CLOUDY    90  53  28 VRB3      30.14F
$$

AZZ009>014-017-241800-
NORTHEAST ARIZONA

CITY           SKY/WX    TMP DP  RH WIND       PRES   REMARKS
WINSLOW        PTSUNNY   86  55  34 VRB6      30.23F
SAINT JOHNS    SUNNY     84  46  26 S12       30.28F
WINDOW ROCK    SUNNY     83  42  23 S10       30.39S
SHOW LOW       SUNNY     81  41  24 S13G23    30.37S
$$

AZZ023-241800-
GREATER PHOENIX AREA

CITY           SKY/WX    TMP DP  RH WIND       PRES   REMARKS
PHOENIX        MOSUNNY  105  56  19 SE12      29.85F HX 104
BUCKEYE          N/A    102  57  22 E14G21    29.85S HX 101
GLENDALE       MOSUNNY  106  61  23 NE6       29.87F HX 107
LUKE AFB       NOT AVBL
DEER VALLEY    MOSUNNY  103  50  17 SE6       29.88F HX 100
SCOTTSDALE     MOSUNNY  101  56  22 E6        29.90F HX 100
MESA-FALCON    MOSUNNY  102  55  21 NE9       29.88F HX 101
MESA-GATEWAY   MOSUNNY  100  52  19 SE6       29.90
CHANDLER       MOSUNNY  102  59  24 E9          N/A  HX 102
$$

AZZ027-028-241800-
SOUTHWEST MARICOPA COUNTY AND PINAL COUNTY

CITY           SKY/WX    TMP DP  RH WIND       PRES   REMARKS
CASA GRANDE    SUNNY    100  59  25 SE7       29.90S HX 100
GILA BEND      MOSUNNY  108  57  19 NW8       29.83F HX 107
$$

AZZ503-504-507>509-241800-
SOUTHEAST ARIZONA

CITY           SKY/WX    TMP DP  RH WIND       PRES   REMARKS
TUCSON         SUNNY    101  42  13 SE18      29.99F
DAVIS-MONTHAN  SUNNY    100  43  14 E18G24    29.97F
RYAN FIELD       N/A     97  54  23 E13       29.98F
SIERRA VISTA   CLOUDY    88  46  23 E12       30.18F
DOUGLAS        SUNNY     90  48  23 E10G17    30.15S
SAFFORD        SUNNY     94  48  20 E10G21    30.09F
$$

AZZ020-021-025-026-031-241800-
SOUTHWEST ARIZONA

CITY           SKY/WX    TMP DP  RH WIND       PRES   REMARKS
YUMA           PTSUNNY  104  41  11 SW6       29.77F
$$

CAZ031-033-041-043-047-048-061-241800-
SOUTHERN CALIFORNIA

CITY           SKY/WX    TMP DP  RH WIND       PRES   REMARKS
DOWNTOWN L.A.  SUNNY     82  61  48 CALM      29.84F
L.A. AIRPORT   MOSUNNY   79  62  56 VRB3      29.85F
SAN DIEGO      MOSUNNY   74  64  71 CALM      29.87F
BURBANK        SUNNY     85  51  31 CALM      29.86F
ONTARIO        MOSUNNY   84  52  33 VRB3      29.87F
RIVERSIDE      SUNNY     85  49  28 CALM      29.87F
PALM SPRINGS   SUNNY    102  38  11 SE8       29.80S
EL CENTRO NAS  PTSUNNY  105  54  18 N5        29.73F HX 103
IMPERIAL       SUNNY    103  58  22 NE12      29.74S HX 102
BLYTHE         MOSUNNY  102  43  13 CALM      29.79F
NEEDLES        SUNNY    106  52  16 SE3       29.83S HX 103
$$

NVZ020-UTZ003-241800-
SOUTHERN NEVADA-UTAH

CITY           SKY/WX    TMP DP  RH WIND       PRES   REMARKS
LAS VEGAS      MOSUNNY  101  29   8 S13       29.87F
SALT LAKE CITY PTSUNNY   87  45  23 NW9       30.04F
$$

NMZ009-TXZ055-241800-
NEW MEXICO-WEST TEXAS

CITY           SKY/WX    TMP DP  RH WIND       PRES   REMARKS
ALBUQUERQUE    MOSUNNY   83  48  29 S8        30.32F
EL PASO        MOSUNNY   87  54  32 SE12G17   30.20S
$$


........................KEY........................
SKY/WX - SKY CONDITION/WEATHER
TMP    - TEMPERATURE IN FAHRENHEIT
DP     - DEW POINT IN FAHRENHEIT
RH     - RELATIVE HUMIDITY IN PERCENT
WIND   - DIRECTION AND SPEED IN MILES PER HOUR (MPH)
VRB    - VARIABLE WIND DIRECTION
PRES   - MEAN SEA LEVEL PRESSURE IN INCHES OF MERCURY
         F - FALLING PRESSURE   R - RISING PRESSURE
         S - STEADY PRESSURE
VSB    - VISIBILITY IN MILES
HX     - HEAT INDEX IN FAHRENHEIT
WCI    - WIND CHILL INDEX IN FAHRENHEIT
TC     - TEMPERATURE IN CELSIUS WHICH IS ALSO KNOWN AS
         TEMPERATURE IN CENTIGRADE
AFB    - AIR FORCE BASE
         LUKE AFB IS LUKE AIR FORCE BASE
         DAVIS-MONTHAN IS DAVIS-MONTHAN AIR FORCE BASE
NAS    - NAVAL AIR STATION
         EL CENTRO NAS IS EL CENTRO NAVAL AIR STATION
N/A    - NOT AVAILABLE


USA.gov is the U.S. government's official web portal to all federal, state and local government web resources and services.